Hourly Weather Roundup
Issued by NWS Central Illinois

Home | Current Version | Previous Version | Text Only | Print | Product List | Glossary On
Versions: 1 2 3 4 5 6 7 8 9 10 11 12 13 14 15 16 17 18 19 20 21 22 23 24 25 26 27 28 29 30 31 32 33 34 35 36 37 38 39 40 41 42 43 44 45 46 47 48 49 50
000
NZUS43 KILX 102010
HWRILX

Area Weather Roundup
National Weather Service Lincoln IL
200 PM CST SUN DEC 10 2017

NOTE:  "FAIR" indicates few or no clouds below 12,000 feet, with
       no sigificant weather and/or obstructions to visibility.


CITY           SKY/WX    TMP DP  RH WIND       PRES   REMARKS
Bloomington    SUNNY     40  23  50 W18       29.92R WCI  31
Champaign      SUNNY     42  22  44 W20G29    29.92S WCI  33
Danville       SUNNY     40  22  48 W18G26    29.88S WCI  31
Decatur        SUNNY     42  23  46 W15       29.95R WCI  34
Effingham      SUNNY     44  26  48 SW12G23   29.98F
Flora          MOSUNNY   46  25  44 W15       29.99R
Galesburg      SUNNY     41  27  57 NW16      29.97R WCI  33
Jacksonville   SUNNY     44  24  45 W15       29.98R
Lacon          SUNNY     39  23  53 NW12G24   29.94R WCI  32
Lawrenceville  MOSUNNY   43  24  47 SW15      29.99F
Litchfield     SUNNY     45  25  45 W18G25    29.98S
$$


CITY           SKY/WX    TMP DP  RH WIND       PRES   REMARKS
Lincoln        SUNNY     42  26  52 W8G16     29.95R
Macomb         SUNNY     43  26  50 NW14G22   29.99R
Mattoon        SUNNY     41  24  51 MISG      29.94F
Mt Carmel AP   MOSUNNY   40  22  48 SW17      29.98F WCI  32
Olney-Noble AP MOSUNNY   44  20  38 SW8       30.00R
Paris AP       SUNNY     41  24  51 SW17      29.95F WCI  32
Peoria         SUNNY     41  24  51 NW13G23   29.95R WCI  34
Pontiac        SUNNY     40  23  51 W15G26    29.92R WCI  31
Rantoul        SUNNY     42  24  48 W18G24    29.91R WCI  33
Robinson       MOSUNNY   41  24  49 SW16      29.99R WCI  33
Springfield    SUNNY     44  25  47 W14       29.96S
Taylorville    SUNNY     44  24  46 W16G23    29.97S
$$

...REGIONAL REPORTS...


CITY           SKY/WX    TMP DP  RH WIND       PRES   REMARKS
Chicago O`Hare CLOUDY    33  20  58 NW13      29.89R WCI  24
Kankakee       SUNNY     37  20  51 W15G21    29.90S WCI  28
Moline         SUNNY     40  25  55 NW17G23   29.96R WCI  31
Mount Sterling SUNNY     42  24  49 W17G23    29.98R WCI  34
Mount Vernon   MOSUNNY   47  26  44 SW16      30.00S
Pittsfield     SUNNY     45  26  46 W15       30.00S
Quincy         SUNNY     45  24  43 NW16      30.00R
Rockford       CLOUDY    32  20  61 NW12      29.95R WCI  23
$$


CITY           SKY/WX    TMP DP  RH WIND       PRES   REMARKS
Burlington     SUNNY     43  25  49 NW14G22   29.98R
Cedar Rapids   SUNNY     39  24  55 NW15      29.98R WCI  31
Des Moines     CLOUDY    47  25  42 NW16      30.03S
Kirksville     SUNNY     49  25  39 NW16      30.03R
Ottumwa        SUNNY     45  24  43 NW15      30.02R
St Louis       MOSUNNY   51  25  36 W17       30.00
$$


CITY           SKY/WX    TMP DP  RH WIND       PRES   REMARKS
Terre Haute    SUNNY     40  21  46 SW16G24   29.95F WCI  31
Evansville     PTSUNNY   42  24  49 S15       30.02F WCI  34
Indianapolis   MOSUNNY   37  19  48 SW20G29   29.94S WCI  27
Lafayette      SUNNY     39  21  48 SW15G23   29.90F WCI  31
Madison        CLOUDY    29  19  66 NW9       29.92R WCI  20
Milwaukee      CLOUDY    28  20  71 NW12      29.90R WCI  18
$$






USA.gov is the U.S. government's official web portal to all federal, state and local government web resources and services.